"Time","Temp","Dewpoint","Humidity","Pressure","Direction","Speed","Gust","Precip","PrecipRate"
"00:04:57","61.2","56.3","84","29.96","136","4.3","11.5","0.00","0.00"
"00:09:57","61.3","56.4","84","29.96","118","5","11.5","0.00","0.00"
"00:14:58","61.4","56.5","84","29.96","135","3.5","7","0.00","0.00"
"00:19:59","61.4","56.5","84","29.95","133","3.1","10.4","0.00","0.00"
"00:24:57","61.4","56.5","84","29.95","112","3.7","10.4","0.00","0.00"
"00:29:58","61.4","56.6","84.4","29.95","120","3.6","12","0.00","0.00"
"00:34:56","61.5","56.9","85","29.95","143","4.9","11.5","0.00","0.00"
"00:39:56","61.5","56.9","85","29.95","146","3.5","9.2","0.00","0.00"
"00:44:59","61.5","56.9","85","29.95","134","4.2","9","0.00","0.00"
"00:49:52","61.5","56.9","85","29.94","133","3.3","8.1","0.00","0.00"
"00:54:58","61.5","56.9","85.1","29.94","123","4.4","8.1","0.00","0.00"
"00:59:59","61.5","57.3","86","29.94","140","3.1","7","0.00","0.00"
"01:04:59","61.4","57.2","86","29.92","132","3","7","0.00","0.00"
"01:09:56","61.5","57.3","86","29.92","128","3.8","8.1","0.00","0.00"
"01:14:59","61.5","57.3","86","29.92","121","4.2","11.5","0.00","0.00"
"01:19:57","61.6","57.4","86","29.91","137","4.1","11.5","0.00","0.00"
"01:24:59","61.6","57.4","86","29.91","143","3.8","11.5","0.00","0.00"
"01:29:57","61.7","57.5","86","29.91","143","2.8","6","0.00","0.00"
"01:34:56","61.7","57.5","86","29.91","133","3.1","7","0.00","0.00"
"01:39:59","61.8","57.8","86.6","29.91","126","3.9","10","0.00","0.00"
"01:44:58","62","58.1","87","29.91","133","3.6","10.4","0.00","0.00"
"01:49:56","62","58.1","86.8","29.91","147","2.8","10.4","0.00","0.00"
"01:54:58","62.1","58.2","87","29.91","161","3.3","11","0.00","0.00"
"01:59:59","62.2","58.3","87","29.91","129","3.6","11","0.00","0.00"
"02:04:59","62.3","58.4","87","29.91","117","5.4","11.5","0.00","0.00"
"02:09:59","62.5","58.5","86.8","29.91","122","5.8","12","0.00","0.00"
"02:14:59","62.6","58.7","87","29.91","127","4.4","10","0.00","0.00"
"02:19:56","62.7","58.8","87","29.90","155","3.1","12","0.00","0.00"
"02:24:58","62.8","58.9","87","29.90","159","4","7","0.00","0.00"
"02:29:56","62.9","59.1","87.3","29.90","139","4.6","12","0.00","0.00"
"02:34:58","63.1","59.4","87.6","29.89","170","5.1","15","0.00","0.00"
"02:39:59","63.3","59.7","88","29.89","172","4.5","15","0.00","0.00"
"02:44:57","63.4","59.8","88","29.89","139","4.3","9.2","0.00","0.00"
"02:49:59","63.6","60","88","29.88","153","4.8","12","0.00","0.00"
"02:54:57","63.7","60.1","88.2","29.88","169","6.1","12","0.00","0.00"
"02:59:58","63.6","60.3","89","29.88","166","4","11.5","0.00","0.00"
"03:04:58","63.6","60.3","89.1","29.88","179","3.1","8.1","0.00","0.00"
"03:09:59","63.4","60.4","90","29.88","165","3.2","11","0.00","0.00"
"03:14:57","63.3","60.5","90.8","29.88","166","4.6","11.5","0.01","0.01"
"03:19:59","63.2","60.5","91","29.88","144","2.4","7","0.01","0.01"
"03:24:57","63.1","60.6","91.8","29.88","142","4.9","12","0.01","0.01"
"03:29:56","62.9","60.5","92.2","29.88","135","4","10","0.01","0.01"
"03:34:59","62.8","60.7","93","29.86","156","3.9","9.2","0.02","0.02"
"03:39:59","62.7","60.6","93","29.86","166","3.3","7","0.03","0.03"
"03:44:56","62.6","60.7","93.8","29.86","161","4.5","10.4","0.03","0.03"
"03:49:58","62.6","60.8","94","29.85","155","4.7","12","0.03","0.03"
"03:54:56","62.6","60.8","94","29.85","149","3.4","9.2","0.03","0.03"
"03:59:58","62.6","60.8","94","29.85","144","3.7","9.2","0.03","0.03"
"04:04:59","62.6","60.8","94","29.85","147","3","10","0.03","0.03"
"04:09:59","62.6","60.8","94","29.85","181","3.9","10.4","0.03","0.03"
"04:14:58","62.5","60.7","94","29.86","171","3.3","6","0.03","0.03"
"04:19:56","62.5","60.7","94","29.86","173","3.8","10.4","0.04","0.03"
"04:24:58","62.5","60.8","94.6","29.86","175","3.4","9.2","0.05","0.04"
"04:29:56","62.4","60.9","95","29.86","159","4","10.4","0.05","0.04"
"04:34:57","62.4","60.9","95","29.86","186","4.5","10.4","0.06","0.04"
"04:39:58","62.4","60.9","95","29.86","170","4","8.1","0.08","0.05"
"04:44:58","62.3","60.6","94.1","29.89","243","8.2","18","0.14","0.10"
"04:49:58","61.8","59.4","91.8","29.89","207","5.8","17.3","0.19","0.16"
"04:54:57","61.4","59.1","92.1","29.89","196","2.3","6","0.21","0.18"
"04:59:56","60.9","58.8","92.7","29.89","208","1.7","5.8","0.22","0.19"
"05:04:55","60.5","58.5","93","29.88","209","1.1","3.5","0.23","0.20"
"05:09:59","60.1","58.2","93.2","29.88","209","0.1","2.3","0.23","0.20"
"05:14:57","59.9","58.2","94","29.88","209","0","1","0.23","0.20"
"05:19:58","59.7","58","94","29.87","209","0.5","2.3","0.23","0.20"
"05:24:57","59.5","57.8","94","29.87","209","0.3","1.2","0.24","0.19"
"05:29:57","59.2","57.5","94","29.87","209","0.3","2.3","0.25","0.20"
"05:34:56","59.1","57.5","94.5","29.87","209","0.2","2.3","0.27","0.21"
"05:39:57","58.9","57.5","95","29.87","209","0","1","0.28","0.21"
"05:44:56","58.8","57.4","95","29.89","209","0.1","1.2","0.29","0.20"
"05:49:56","58.6","57.2","95","29.89","209","0","0","0.29","0.15"
"05:54:56","58.6","57.4","95.8","29.89","209","0","0","0.30","0.10"
"05:59:58","58.6","57.5","96","29.90","171","0.7","4","0.30","0.09"
"06:04:56","58.5","57.4","96","29.90","124","2.1","5","0.31","0.09"
"06:09:57","58.4","57","95.2","29.90","122","1.9","4","0.32","0.09"
"06:14:58","58.2","56.8","95","29.90","250","0.5","3.5","0.33","0.10"
"06:19:57","58.1","56.7","95.2","29.89","250","0","2.3","0.35","0.11"
"06:24:58","58","56.9","96","29.89","250","0.6","2.3","0.36","0.12"
"06:29:58","58","56.9","96","29.91","299","1.1","3.5","0.37","0.12"
"06:34:59","57.9","56.8","96","29.91","323","0.5","3.5","0.39","0.12"
"06:39:57","57.9","56.8","96","29.91","316","1.3","4","0.40","0.12"
"06:44:57","57.8","56.7","96","29.91","250","0.6","3.5","0.41","0.12"
"06:49:57","57.7","56.6","96","29.90","344","1.7","4","0.41","0.12"
"06:54:58","57.6","56.4","95.9","29.90","341","1.1","3.5","0.41","0.12"
"06:59:57","57.5","56.4","96","29.93","304","2","4","0.42","0.12"
"07:04:56","57.5","56.4","96","29.93","318","1.4","3.5","0.42","0.12"
"07:09:57","57.5","56.4","96","29.93","319","1.5","4","0.43","0.11"
"07:14:59","57.5","56.4","96","29.94","258","2.5","6","0.43","0.11"
"07:19:57","57.5","56.4","96","29.94","260","2.3","9","0.43","0.10"
"07:24:58","57.4","56","95.1","29.94","315","4.5","19","0.43","0.08"
"07:29:59","56.5","52.6","86.9","29.94","307","7","19.6","0.43","0.07"
"07:34:58","55.4","50.9","84.8","29.94","280","4.1","11.5","0.43","0.06"
"07:39:57","54.8","51","86.9","29.94","263","2.7","11","0.43","0.04"
"07:44:59","54.4","50.7","87.2","29.95","290","2.6","6.9","0.43","0.03"
"07:49:56","54.2","50.8","88.2","29.95","278","4","9.2","0.43","0.02"
"07:54:58","54.1","51.1","89.7","29.95","252","0.9","6.9","0.43","0.02"
"07:59:58","54","51","89.7","29.97","306","1.1","3.5","0.43","0.02"
"08:04:56","54","51.3","90.8","29.97","317","2.3","9","0.43","0.01"
"08:09:56","53.9","50.3","87.7","29.97","324","3.9","12","0.43","0.01"
"08:14:58","54","49.3","84.2","29.98","292","6.1","16","0.43","0.00"
"08:19:57","54.1","49.1","83","29.98","309","4.3","10.4","0.43","0.00"
"08:24:56","54.1","48.9","82.5","29.98","317","5.3","10.4","0.43","0.00"
"08:29:56","54.2","48.7","81.8","29.98","322","3.5","11","0.43","0.00"
"08:34:59","54.1","48.7","81.8","29.98","311","3.9","8.1","0.43","0.00"
"08:39:59","54.2","48.3","80.5","29.98","311","2.9","6","0.43","0.00"
"08:44:58","54.3","48.1","79.5","29.98","322","3.7","10","0.43","0.00"
"08:49:57","54.3","48.1","79.5","29.98","328","3.5","10.4","0.43","0.00"
"08:54:57","54.3","48","79.1","29.98","307","1.8","9.2","0.43","0.00"
"08:59:59","54.3","47.8","78.5","29.99","305","2.1","5","0.43","0.00"
"09:04:57","54.5","47.9","78.6","29.99","335","3.3","8.1","0.43","0.00"
"09:09:58","54.7","47.8","77.5","29.99","325","3","7","0.43","0.00"
"09:14:58","54.9","47.8","76.8","29.99","333","4","10.4","0.43","0.00"
"09:19:58","55","48","77","29.98","322","2.9","7","0.43","0.00"
"09:24:57","55.2","47.7","75.7","29.98","332","3.6","9.2","0.43","0.00"
"09:29:59","55.4","47.9","75.7","29.99","308","2.5","9.2","0.43","0.00"
"09:34:57","55.7","47.9","74.9","29.99","326","2.7","7","0.43","0.00"
"09:39:56","56","48.2","75.2","29.99","319","1.5","4.6","0.43","0.00"
"09:44:56","56","47.3","72.4","29.99","316","2.4","6","0.43","0.00"
"09:49:59","56","47.2","72.3","29.99","311","2.5","5","0.43","0.00"
"09:54:57","56.1","47.5","72.8","29.99","333","2.6","6","0.43","0.00"
"09:59:59","56.1","47.2","72","29.99","337","3","6","0.43","0.00"
"10:04:57","56.2","47.4","72.2","29.99","342","3","9","0.43","0.00"
"10:09:57","56.4","47.2","71.5","29.99","339","2.6","9.2","0.43","0.00"
"10:14:57","56.4","46.8","70.1","30.00","336","2.9","6","0.43","0.00"
"10:19:59","56.5","46.7","69.7","30.00","324","2.1","6","0.43","0.00"
"10:24:56","56.8","47.5","71","30.00","333","1.9","5.8","0.43","0.00"
"10:29:56","57","47.6","70.9","30.01","296","2","5","0.43","0.00"
"10:34:58","57.3","47.6","70","30.01","334","2.3","5","0.43","0.00"
"10:39:58","57.6","48","70.4","30.01","306","1.8","5","0.43","0.00"
"10:44:56","57.7","48.2","70.6","30.01","253","1.7","4.6","0.43","0.00"
"10:49:58","57.8","48.3","70.5","30.01","309","2.3","6","0.43","0.00"
"10:54:58","57.8","47.2","67.7","30.01","276","2.3","6","0.43","0.00"
"10:59:58","57.9","47.6","68.4","30.01","282","2.2","7","0.43","0.00"
"11:04:59","58.3","46.9","65.8","30.01","286","3.1","9.2","0.43","0.00"
"11:09:56","59","47.8","66.6","30.01","243","2.9","7","0.43","0.00"
"11:14:55","59.2","46.5","62.8","30.01","263","3.6","9","0.43","0.00"
"11:19:57","59.1","46","61.9","30.00","319","3","6","0.43","0.00"
"11:24:59","59.6","46.8","62.5","30.00","305","2.8","9.2","0.43","0.00"
"11:29:57","60.4","46.4","60","30.00","281","3.6","7","0.43","0.00"
"11:34:56","60.9","45.3","56.6","29.99","304","4.6","13","0.43","0.00"
"11:39:58","61.1","45.7","57.1","29.99","259","2.8","7","0.43","0.00"
"11:44:59","61.4","45.4","55.8","29.99","277","3.7","10.4","0.43","0.00"
"11:49:57","61.4","45.7","56.1","29.98","347","3.2","10.4","0.43","0.00"
"11:54:56","61.8","46.6","57.4","29.98","343","2","5","0.43","0.00"
"11:59:58","62.3","45.8","55","29.98","345","3.7","7","0.43","0.00"
"12:04:57","62.4","44.7","52.3","29.95","321","3.9","9","0.43","0.00"
"12:09:58","62.4","43.8","50.5","29.95","280","3","9.2","0.43","0.00"
"12:14:56","62.6","43.2","49.1","29.95","321","3.8","9.2","0.43","0.00"
"12:19:59","63","42.7","47.5","29.94","287","2.3","10.4","0.43","0.00"
"12:24:56","63.2","42.8","47.2","29.94","288","2.6","6","0.43","0.00"
"12:29:57","63.4","44.5","50.2","29.94","329","2.9","6","0.43","0.00"
"12:34:58","63.5","44.2","49.4","29.94","274","2.9","6","0.43","0.00"
"12:39:57","63.5","43.7","48.5","29.94","321","3.2","13","0.43","0.00"
"12:44:57","63.5","43.7","48.6","29.94","303","2.1","5","0.43","0.00"
"12:49:57","63.7","42.4","45.8","29.94","311","4.2","10","0.43","0.00"
"12:54:59","63.6","41.6","44.6","29.94","338","3.8","9.2","0.43","0.00"
"12:59:57","63.6","41.2","43.9","29.94","339","3.9","9.2","0.43","0.00"
"13:04:57","63.8","42.7","46.3","29.94","304","2.4","7","0.43","0.00"
"13:09:57","63.9","41.4","43.8","29.94","318","3.2","7","0.43","0.00"
"13:14:59","64.1","41.7","44","29.94","266","2.1","6","0.43","0.00"
"13:19:56","64.5","42.4","44.5","29.94","289","1.9","6","0.43","0.00"
"13:24:58","64.7","41.6","42.9","29.94","266","3.1","7","0.43","0.00"
"13:29:58","64.6","41.8","43.4","29.95","259","4.1","9","0.43","0.00"
"13:34:56","64.5","42.4","44.5","29.95","253","3.7","7","0.43","0.00"
"13:39:59","64.8","42","43.5","29.95","289","2.5","7","0.43","0.00"
"13:44:59","65","41.5","42.5","29.95","327","2.7","12","0.43","0.00"
"13:49:56","64.9","40.4","40.6","29.95","291","3.1","9.2","0.43","0.00"
"13:54:57","64.5","39.1","39.1","29.95","310","2.9","7","0.43","0.00"
"13:59:58","64.2","39.7","40.6","29.95","274","1.9","7","0.43","0.00"
"14:04:58","64.5","39.9","40.5","29.94","312","4.4","12","0.43","0.00"
"14:09:58","64.7","40","40.5","29.94","252","3.1","6","0.43","0.00"
"14:14:58","65","41.3","42.1","29.95","241","3.8","7","0.43","0.00"
"14:19:59","65.3","40.3","40","29.95","293","2.4","5","0.43","0.00"
"14:24:59","65.4","39","37.9","29.95","302","3","7","0.43","0.00"
"14:29:58","65.4","38.8","37.6","29.95","309","1.4","4","0.43","0.00"
"14:34:58","65.7","39.4","38","29.94","334","2","4","0.43","0.00"
"14:39:58","66","40.2","38.8","29.94","316","2.4","6","0.43","0.00"
"14:44:57","65.6","39.2","37.8","29.94","285","3.1","6","0.43","0.00"
"14:49:59","65.4","39.7","38.9","29.93","266","1.3","4","0.43","0.00"
"14:54:58","65.5","39.1","37.9","29.93","261","2.1","4","0.43","0.00"
"14:59:58","65.7","39.7","38.5","29.93","311","1.9","5","0.43","0.00"
"15:04:57","65.8","40.3","39.3","29.93","321","0.6","3.5","0.43","0.00"
"15:09:57","66.3","39.9","38.1","29.93","320","0.9","4","0.43","0.00"
"15:14:56","66.7","40.3","37.9","29.93","320","0.4","2.3","0.43","0.00"
"15:19:56","66.9","39.5","36.6","29.93","320","0.9","2.3","0.43","0.00"
"15:24:58","66.9","40.7","38.4","29.93","317","1.4","3.5","0.43","0.00"
"15:29:56","66.9","39.1","36.1","29.94","317","0.4","3.5","0.43","0.00"
"15:34:57","66.9","40.1","37.5","29.94","9","1.2","3","0.43","0.00"
"15:39:58","66.1","39.8","38","29.94","12","1.7","3.5","0.43","0.00"
"15:44:56","65.5","40.3","39.7","29.94","13","1.1","3.5","0.43","0.00"
"15:49:59","65.3","40.1","39.7","29.94","14","0.9","2.3","0.43","0.00"
"15:54:59","65.1","39.7","39.3","29.94","313","1.7","4","0.43","0.00"
"15:59:57","64.7","39.5","39.5","29.95","303","1.4","3.5","0.43","0.00"
"16:04:57","64.4","38.6","38.7","29.95","303","1","2.3","0.43","0.00"
"16:09:57","64.2","38.9","39.4","29.95","303","0.7","3","0.43","0.00"
"16:14:57","64","39.4","40.3","29.95","303","0.5","3.5","0.43","0.00"
"16:19:57","64.1","39.5","40.4","29.95","303","0.3","2.3","0.43","0.00"
"16:24:58","64.2","39.8","40.7","29.95","303","0.7","2.3","0.43","0.00"
"16:29:59","64.1","39.6","40.5","29.95","303","0.1","2.3","0.43","0.00"
"16:34:59","63.9","39.7","40.9","29.95","303","0","1.2","0.43","0.00"
"16:39:58","63.4","41.1","44","29.95","303","0","0","0.43","0.00"
"16:44:56","62.6","40.3","43.8","29.95","303","0","0","0.43","0.00"
"16:49:58","61.9","39.9","44.2","29.95","303","0","0","0.43","0.00"
"16:54:58","61","40","45.8","29.95","303","0","0","0.43","0.00"
"16:59:58","60.1","39.7","46.8","29.95","303","0","1","0.43","0.00"
"17:04:58","59.3","40.4","49.4","29.95","303","0.3","1.2","0.43","0.00"
"17:09:59","58.6","40.7","51.5","29.95","303","0","0","0.43","0.00"
"17:14:57","57.8","41.5","54.5","29.96","303","0.1","1.2","0.43","0.00"
"17:19:59","57","41.1","55.1","29.96","303","0.2","1.2","0.43","0.00"
"17:24:58","56.4","41.8","58.1","29.96","303","0.2","1.2","0.43","0.00"
"17:29:59","55.7","42","59.9","29.96","303","0","0","0.43","0.00"
"17:34:56","55.1","42.6","62.8","29.95","303","0","0","0.43","0.00"
"17:39:59","54.4","43","65.2","29.95","303","0","0","0.43","0.00"
"17:44:56","53.7","42.7","66.3","29.96","303","0","1.2","0.43","0.00"
"17:49:57","53.1","43","68.5","29.96","303","0","0","0.43","0.00"
"17:54:57","52.5","43.3","70.6","29.96","303","0","0","0.43","0.00"
"17:59:58","52","43.6","72.9","29.97","303","0","0","0.43","0.00"
"18:04:57","51.7","43.9","74.5","29.97","303","0","0","0.43","0.00"
"18:09:58","51.4","43.6","74.5","29.97","303","0","0","0.43","0.00"
"18:14:56","51","42.6","73","29.97","303","0","0","0.43","0.00"
"18:19:58","50.6","42.7","74.3","29.97","303","0","0","0.43","0.00"
"18:24:58","50.2","42.3","74.1","29.97","303","0.1","1.2","0.43","0.00"
"18:29:56","49.9","42.5","75.6","29.98","303","0.3","1.2","0.43","0.00"
"18:34:58","49.6","42.8","77.1","29.98","303","0","1.2","0.43","0.00"
"18:39:59","49.2","42.8","78.4","29.98","303","0","0","0.43","0.00"
"18:44:56","49.1","42.9","79.2","29.98","303","0","0","0.43","0.00"
"18:49:57","48.8","43.2","80.8","29.98","303","0.3","3.5","0.43","0.00"
"18:54:57","48.7","43.5","82","29.98","303","0.2","3.5","0.43","0.00"
"18:59:52","48.5","43.3","82","29.98","303","0","1.2","0.43","0.00"
"19:04:59","48.2","43.2","82.7","29.97","303","0","0","0.43","0.00"
"19:09:56","47.8","42.9","83","29.97","303","0","0","0.43","0.00"
"19:14:58","47.6","42.9","83.9","29.98","303","0.5","2.3","0.43","0.00"
"19:19:58","47.4","42.9","84.3","29.98","303","0.1","2.3","0.43","0.00"
"19:24:59","47.1","42.4","83.7","29.98","303","0","1.2","0.43","0.00"
"19:29:59","46.8","42.4","84.8","29.98","303","0","0","0.43","0.00"
"19:34:58","46.6","42.3","85.1","29.97","303","0","0","0.43","0.00"
"19:39:58","46.4","42.4","86","29.97","303","0","0","0.43","0.00"
"19:44:58","46.2","42.2","86","29.97","303","0","0","0.43","0.00"
"19:49:57","46.1","42.1","86","29.97","303","0","0","0.43","0.00"
"19:54:55","45.7","41.8","86","29.97","303","0","0","0.43","0.00"
"19:59:59","45.4","41.7","86.7","29.97","303","0","0","0.43","0.00"
"20:04:57","45.2","41.6","87","29.96","303","0","0","0.43","0.00"
"20:09:58","44.9","41.5","87.6","29.96","303","0","0","0.43","0.00"
"20:14:59","44.7","41.4","88","29.96","303","0","0","0.43","0.00"
"20:19:58","44.4","41.1","88","29.96","303","0","0","0.43","0.00"
"20:24:56","44.2","41","88.2","29.96","303","0","0","0.43","0.00"
"20:29:56","44","41","89","29.96","303","0","0","0.43","0.00"
"20:34:58","43.8","40.9","89.2","29.96","303","0","0","0.43","0.00"
"20:39:59","43.6","40.9","90","29.96","303","0","0","0.43","0.00"
"20:44:59","43.5","40.8","90","29.96","303","0","0","0.43","0.00"
"20:49:56","43.3","40.6","90","29.96","303","0","0","0.43","0.00"
"20:54:56","43.2","40.5","90.2","29.96","303","0","0","0.43","0.00"
"20:59:58","43","40.5","90.6","29.96","303","0","0","0.43","0.00"
"21:04:59","42.8","40.4","91","29.96","303","0","0","0.43","0.00"
"21:09:56","42.7","40.3","91","29.96","303","0","0","0.43","0.00"
"21:14:58","42.5","40.1","91","29.96","303","0","0","0.43","0.00"
"21:19:56","42.4","40","91","29.96","303","0","0","0.43","0.00"
"21:24:59","42.3","39.9","91","29.96","303","0","0","0.43","0.00"
"21:29:57","42.2","39.9","91.2","29.97","303","0","0","0.43","0.00"
"21:34:58","42.3","40.1","92","29.97","303","0","0","0.43","0.00"
"21:39:59","42.4","40.1","91.6","29.97","303","0","0","0.43","0.00"
"21:44:57","42.3","39.9","91","29.97","303","0","0","0.43","0.00"
"21:49:59","42.1","39.7","91","29.96","303","0","0","0.43","0.00"
"21:54:57","41.9","39.5","91","29.96","303","0","0","0.43","0.00"
"21:59:56","41.8","39.6","91.9","29.96","303","0","0","0.43","0.00"
"22:04:58","41.7","39.5","92","29.96","303","0","0","0.43","0.00"
"22:09:59","41.6","39.3","91.4","29.96","303","0","0","0.43","0.00"
"22:14:56","41.5","39.3","91.6","29.96","303","0.5","2","0.43","0.00"
"22:19:57","41.5","39.3","92","29.95","303","0","1.2","0.43","0.00"
"22:24:58","41.5","39.3","92","29.95","303","0","0","0.43","0.00"
"22:29:56","41.4","39.3","92","29.95","303","0","0","0.43","0.00"
"22:34:59","41.3","39.2","92","29.95","303","0","0","0.43","0.00"
"22:39:56","41.1","39","92","29.95","303","0","1","0.43","0.00"
"22:44:57","40.9","38.8","92","29.95","303","0.3","2.3","0.43","0.00"
"22:49:57","40.9","39","92.9","29.94","303","1.3","2.3","0.43","0.00"
"22:54:57","41","39.1","93","29.94","303","1.2","2.3","0.43","0.00"
"22:59:58","41.1","39.2","93","29.94","303","0.1","1.2","0.43","0.00"
"23:04:59","40.9","38.8","92.3","29.94","303","0","0","0.43","0.00"
"23:09:56","40.5","38.4","92","29.94","303","0","0","0.43","0.00"
"23:14:58","40.3","38.4","92.8","29.94","303","0.1","1.2","0.43","0.00"
"23:19:56","40.3","38.4","93","29.94","303","0","0","0.43","0.00"
"23:24:56","40.2","38.3","93","29.94","303","0.1","2","0.43","0.00"
"23:29:58","40.2","38.5","93.8","29.94","303","0.2","2.3","0.43","0.00"
"23:34:59","40.4","38.8","94.1","29.93","303","0.3","2","0.43","0.00"
"23:39:59","40.6","39.3","95","29.93","302","0.9","3","0.43","0.00"
"23:44:58","41","39.7","95","29.93","253","0.9","2.3","0.43","0.00"
"23:49:59","41.3","39.9","94.8","29.93","253","0.3","2.3","0.43","0.00"
"23:54:58","41.3","39.7","94","29.93","253","0.3","2","0.43","0.00"
"23:59:59","41.4","39.8","94","29.93","253","0.6","2.3","0.43","0.00"
